Retour au catalogue

STARLINK-31078

ActifCommunicationsVLEO
NORAD 58638·PAYLOAD·🇺🇸 United States

Lancé Dec 23, 2023 depuis Cape Canaveral Space Force Station

Loading…

Prochains Passages (prochaines 24 heures)

TLE

FraisSource: CelesTrak SupGP

Époque: Sep 15, 2026, 03:15 UTC

1 58638C 23203W   26258.13590278 -.00023119  00000+0 -83723-3 0  2589
2 58638  43.0025  77.3999 0001404 269.1252  47.8037 15.27594849    10

Suivez STARLINK-31078 en temps réel avec AllMySat

Download on the App Store